{"data":{"norad_id":48646,"epoch":"2026-05-25T05:14:07.481760Z","epoch_age_seconds":52106,"freshness":"FRESH","line1":"1 48646U 21044J   26145.21814215 -.00000114  00000+0  81071-5 0  9999","line2":"2 48646  53.1577 117.9480 0001238  95.9256 264.1887 15.31701722275557","mean_motion":15.31701722,"eccentricity":0.0001238,"inclination_deg":53.1577,"raan_deg":117.948,"arg_perigee_deg":95.9256,"mean_anomaly_deg":264.1887,"bstar":8.1071e-6,"rev_number":27555,"period_min":94.013082267724,"perigee_km":469.88697170154,"apogee_km":471.58275237458,"semimajor_km":6848.8718620381,"source":"CELESTRAK","updated_at":"2026-05-25T13:38:16.754364Z"}}